| time (UTC) | temp F | wind direction | speed MPH | gust MPH | rain 1hr in | rain 24hr in | rain mn in | humidity % | barometer mb |
| 20260904064125 | 71 | 331 | 0.0 | 0.0 | 0.00 | 0.00 | 0.00 | 98 | 1010.7 |
| 20260904063144 | 71 | 330 | 0.0 | 0.0 | 0.00 | 0.00 | 0.00 | 98 | 1010.7 |
| 20260904062121 | 71 | 331 | 0.0 | 0.0 | 0.00 | 0.00 | 0.00 | 98 | 1010.7 |
| 20260904061125 | 71 | 331 | 0.0 | 0.0 | 0.00 | 0.00 | 0.00 | 98 | 1010.8 |
| 20260904060054 | 71 | 331 | 0.0 | 0.0 | 0.00 | 0.00 | 0.00 | 98 | 1011.1 |
| 20260904055104 | 71 | 330 | 0.0 | 0.0 | 0.00 | 0.01 | 0.00 | 98 | 1011.3 |
| 20260904054046 | 71 | 331 | 0.0 | 0.0 | 0.00 | 0.03 | 0.00 | 98 | 1011.1 |
| 20260904053025 | 71 | 331 | 0.0 | 0.0 | 0.00 | 0.06 | 0.00 | 98 | 1011.2 |
| 20260904052001 | 71 | 331 | 0.0 | 0.0 | 0.00 | 0.10 | 0.00 | 98 | 1011.2 |
| 20260904050945 | 71 | 331 | 0.0 | 0.0 | 0.00 | 0.16 | 0.00 | 98 | 1011.2 |
| 20260904045922 | 71 | 331 | 0.0 | 0.0 | 0.00 | 0.28 | 0.00 | 98 | 1011.2 |
| 20260904044851 | 71 | 331 | 0.0 | 0.0 | 0.00 | 0.29 | 0.00 | 98 | 1011.4 |
| 20260904043852 | 71 | 331 | 0.0 | 0.0 | 0.00 | 0.29 | 0.00 | 98 | 1011.6 |
| 20260904042859 | 71 | 331 | 0.0 | 0.0 | 0.00 | 0.29 | 0.00 | 98 | 1011.6 |
| 20260904041908 | 71 | 331 | 0.0 | 0.0 | 0.00 | 0.29 | 0.00 | 98 | 1011.8 |
| 20260904040913 | 71 | 331 | 0.0 | 0.0 | 0.00 | 0.29 | 0.00 | 98 | 1011.9 |
| 20260904035904 | 71 | 330 | 0.0 | 0.0 | 0.00 | 0.29 | 0.30 | 98 | 1011.8 |
| 20260904034855 | 71 | 331 | 0.0 | 0.0 | 0.00 | 0.29 | 0.30 | 98 | 1011.7 |
| 20260904033905 | 71 | 330 | 0.0 | 0.0 | 0.00 | 0.29 | 0.30 | 98 | 1011.7 |
| 20260904032842 | 71 | 331 | 0.0 | 0.0 | 0.00 | 0.29 | 0.30 | 98 | 1011.7 |
| 20260904030705 | 71 | 331 | 0.0 | 0.0 | 0.00 | 0.29 | 0.30 | 98 | 1012.1 |
| 20260904025726 | 71 | 331 | 0.0 | 0.0 | 0.00 | 0.29 | 0.30 | 98 | 1012.2 |
| 20260904024735 | 71 | 331 | 0.0 | 0.0 | 0.00 | 0.29 | 0.30 | 97 | 1012.3 |
| 20260904023728 | 71 | 331 | 0.0 | 0.0 | 0.00 | 0.29 | 0.30 | 97 | 1012.3 |
| 20260904022711 | 71 | 331 | 0.0 | 0.0 | 0.00 | 0.29 | 0.30 | 97 | 1012.3 |
| 20260904021715 | 72 | 331 | 0.0 | 0.0 | 0.00 | 0.29 | 0.30 | 97 | 1012.4 |
| 20260904020729 | 72 | 331 | 0.0 | 0.0 | 0.00 | 0.29 | 0.30 | 97 | 1012.5 |
| 20260904015733 | 72 | 331 | 0.0 | 0.0 | 0.00 | 0.29 | 0.30 | 97 | 1012.6 |
| 20260904014722 | 72 | 330 | 0.0 | 0.0 | 0.00 | 0.29 | 0.30 | 97 | 1012.5 |
| 20260904013726 | 72 | 330 | 0.0 | 0.0 | 0.00 | 0.29 | 0.30 | 97 | 1012.6 |
| 20260904012726 | 72 | 331 | 0.0 | 0.0 | 0.00 | 0.29 | 0.30 | 97 | 1012.7 |
| 20260904011722 | 72 | 331 | 0.0 | 0.0 | 0.00 | 0.29 | 0.30 | 96 | 1012.8 |
| 20260904004350 | 73 | 331 | 0.0 | 0.0 | 0.00 | 0.29 | 0.30 | 96 | 1012.5 |
| 20260904003346 | 73 | 331 | 0.0 | 0.0 | 0.00 | 0.29 | 0.30 | 96 | 1012.4 |
| 20260904002315 | 73 | 330 | 0.0 | 0.0 | 0.00 | 0.29 | 0.30 | 95 | 1012.5 |
| 20260904001327 | 74 | 330 | 0.0 | 0.0 | 0.00 | 0.29 | 0.30 | 95 | 1012.4 |
| 20260904000336 | 74 | 331 | 0.0 | 0.0 | 0.00 | 0.29 | 0.30 | 95 | 1012.4 |
| 20260903234153 | 75 | 331 | 0.0 | 0.0 | 0.00 | 0.29 | 0.30 | 93 | 1011.9 |
| 20260903233154 | 75 | 331 | 0.0 | 0.0 | 0.00 | 0.29 | 0.30 | 93 | 1012.0 |
| 20260903232144 | 76 | 331 | 0.0 | 0.0 | 0.00 | 0.29 | 0.30 | 92 | 1012.0 |
| 20260903231202 | 76 | 331 | 0.0 | 0.0 | 0.00 | 0.29 | 0.30 | 91 | 1011.9 |
| 20260903230150 | 77 | 331 | 0.0 | 0.0 | 0.00 | 0.29 | 0.30 | 90 | 1012.0 |
| 20260903225139 | 78 | 331 | 0.0 | 0.0 | 0.00 | 0.29 | 0.30 | 89 | 1011.8 |
| 20260903224126 | 78 | 331 | 0.0 | 0.0 | 0.00 | 0.29 | 0.30 | 89 | 1012.0 |
| 20260903223127 | 79 | 330 | 0.0 | 0.0 | 0.00 | 0.30 | 0.30 | 88 | 1012.0 |
| 20260903222059 | 79 | 330 | 0.0 | 0.0 | 0.00 | 0.30 | 0.30 | 87 | 1012.2 |
| 20260903221041 | 79 | 330 | 0.0 | 0.0 | 0.00 | 0.30 | 0.30 | 87 | 1012.2 |
| 20260903220010 | 80 | 330 | 0.0 | 0.0 | 0.00 | 0.30 | 0.30 | 85 | 1012.3 |
| 20260903215024 | 81 | 331 | 0.0 | 0.0 | 0.00 | 0.30 | 0.30 | 83 | 1012.3 |
| 20260903214041 | 82 | 331 | 0.0 | 0.0 | 0.00 | 0.30 | 0.30 | 81 | 1012.2 |
| 20260903213009 | 83 | 330 | 0.0 | 0.0 | 0.00 | 0.30 | 0.30 | 77 | 1012.2 |
| 20260903212033 | 85 | 332 | 0.0 | 1.0 | 0.00 | 0.30 | 0.30 | 75 | 1012.1 |
| 20260903211006 | 84 | 293 | 0.0 | 0.0 | 0.00 | 0.30 | 0.30 | 75 | 1012.0 |
| 20260903210004 | 84 | 237 | 0.0 | 0.0 | 0.00 | 0.30 | 0.30 | 75 | 1012.0 |
| 20260903204958 | 82 | 246 | 0.0 | 0.0 | 0.00 | 0.30 | 0.30 | 79 | 1012.0 |
| 20260903202811 | 82 | 275 | 0.0 | 0.0 | 0.00 | 0.30 | 0.30 | 77 | 1012.3 |
| 20260903201744 | 82 | 246 | 0.0 | 0.0 | 0.00 | 0.30 | 0.30 | 79 | 1012.4 |
| 20260903200711 | 80 | 288 | 0.0 | 0.0 | 0.00 | 0.30 | 0.30 | 81 | 1012.4 |
| 20260903195642 | 81 | 288 | 0.0 | 0.0 | 0.00 | 0.30 | 0.30 | 81 | 1012.6 |
| 20260903194651 | 80 | 316 | 0.0 | 0.0 | 0.00 | 0.30 | 0.30 | 83 | 1012.3 |
| 20260903193619 | 81 | 316 | 0.0 | 0.0 | 0.00 | 0.30 | 0.30 | 80 | 1012.5 |
| 20260903191538 | 82 | 238 | 0.0 | 0.0 | 0.00 | 0.31 | 0.30 | 78 | 1012.6 |
| 20260903190537 | 82 | 101 | 0.0 | 0.0 | 0.00 | 0.33 | 0.30 | 78 | 1012.7 |
| 20260903185536 | 83 | 217 | 0.0 | 0.0 | 0.00 | 0.38 | 0.30 | 77 | 1013.0 |
| 20260903184518 | 83 | 194 | 0.0 | 0.0 | 0.00 | 0.43 | 0.30 | 78 | 1012.9 |
| 20260903183527 | 82 | 329 | 0.0 | 1.0 | 0.00 | 0.45 | 0.30 | 77 | 1012.9 |
| 20260903182458 | 82 | 99 | 0.0 | 1.0 | 0.00 | 0.45 | 0.30 | 78 | 1013.0 |
| 20260903181446 | 82 | 357 | 0.0 | 0.0 | 0.00 | 0.45 | 0.30 | 79 | 1013.1 |
| 20260903175249 | 81 | 87 | 0.0 | 1.0 | 0.00 | 0.45 | 0.30 | 77 | 1013.1 |
| 20260903174238 | 81 | 323 | 0.0 | 5.0 | 0.00 | 0.45 | 0.30 | 78 | 1013.2 |
| 20260903173242 | 81 | 145 | 0.0 | 5.0 | 0.00 | 0.45 | 0.30 | 79 | 1013.3 |
| 20260903172300 | 80 | 100 | 0.0 | 5.0 | 0.00 | 0.45 | 0.30 | 81 | 1013.4 |
| 20260903171308 | 79 | 323 | 0.0 | 5.0 | 0.00 | 0.45 | 0.30 | 81 | 1013.5 |
| 20260903170324 | 79 | 198 | 0.0 | 5.0 | 0.00 | 0.45 | 0.30 | 80 | 1013.6 |
| 20260903164220 | 79 | 75 | 0.0 | 4.0 | 0.00 | 0.45 | 0.30 | 82 | 1013.6 |
| 20260903163219 | 78 | 192 | 0.0 | 0.0 | 0.00 | 0.45 | 0.30 | 86 | 1013.7 |
| 20260903162156 | 77 | 180 | 0.0 | 1.0 | 0.00 | 0.45 | 0.30 | 88 | 1013.7 |
| 20260903154926 | 74 | 309 | 0.0 | 2.0 | 0.00 | 0.45 | 0.30 | 92 | 1014.1 |
| 20260903153902 | 73 | 0 | 0.0 | 0.0 | 0.00 | 0.45 | 0.30 | 93 | 1014.1 |
| 20260903152842 | 73 | 5 | 0.0 | 3.0 | 0.00 | 0.45 | 0.30 | 94 | 1014.3 |
| 20260903151808 | 72 | 283 | 0.0 | 2.0 | 0.00 | 0.45 | 0.30 | 97 | 1014.4 |
| 20260903150745 | 71 | 120 | 0.0 | 0.0 | 0.00 | 0.45 | 0.30 | 97 | 1014.6 |
| 20260903145715 | 71 | 327 | 0.0 | 0.0 | 0.00 | 0.45 | 0.30 | 98 | 1014.4 |
| 20260903144656 | 70 | 34 | 0.0 | 0.0 | 0.00 | 0.45 | 0.30 | 98 | 1014.6 |
| 20260903143645 | 70 | 65 | 0.0 | 0.0 | 0.00 | 0.45 | 0.30 | 98 | 1014.7 |
| 20260903142618 | 70 | 77 | 0.0 | 0.0 | 0.00 | 0.45 | 0.30 | 99 | 1014.6 |
| 20260903141640 | 70 | 113 | 0.0 | 0.0 | 0.00 | 0.45 | 0.30 | 99 | 1014.5 |
| 20260903140644 | 69 | 311 | 0.0 | 0.0 | 0.00 | 0.45 | 0.30 | 99 | 1014.5 |
| 20260903135636 | 70 | 316 | 0.0 | 0.0 | 0.00 | 0.45 | 0.30 | 99 | 1014.5 |
| 20260903133431 | 69 | 328 | 0.0 | 0.0 | 0.00 | 0.46 | 0.30 | 99 | 1014.7 |
| 20260903132448 | 69 | 328 | 0.0 | 0.0 | 0.00 | 0.46 | 0.30 | 99 | 1014.6 |
| 20260903131453 | 69 | 328 | 0.0 | 0.0 | 0.00 | 0.46 | 0.30 | 99 | 1014.7 |
| 20260903130518 | 68 | 328 | 0.0 | 0.0 | 0.00 | 0.46 | 0.30 | 99 | 1014.8 |
| 20260903125502 | 68 | 328 | 0.0 | 0.0 | 0.00 | 0.46 | 0.30 | 99 | 1015.2 |
| 20260903124459 | 68 | 328 | 0.0 | 0.0 | 0.00 | 0.46 | 0.30 | 99 | 1015.2 |
| 20260903123436 | 68 | 328 | 0.0 | 0.0 | 0.00 | 0.46 | 0.30 | 99 | 1014.9 |
| 20260903122457 | 68 | 328 | 0.0 | 0.0 | 0.00 | 0.46 | 0.30 | 99 | 1015.1 |
| 20260903121424 | 67 | 328 | 0.0 | 0.0 | 0.00 | 0.46 | 0.30 | 99 | 1015.2 |
| 20260903120356 | 67 | 328 | 0.0 | 0.0 | 0.00 | 0.46 | 0.30 | 99 | 1015.5 |
| 20260903115341 | 67 | 328 | 0.0 | 0.0 | 0.00 | 0.46 | 0.30 | 99 | 1015.4 |
| 20260903114334 | 67 | 328 | 0.0 | 0.0 | 0.00 | 0.46 | 0.30 | 99 | 1015.5 |
| 20260903113325 | 67 | 328 | 0.0 | 0.0 | 0.00 | 0.46 | 0.30 | 99 | 1015.4 |
| 20260903112328 | 67 | 328 | 0.0 | 0.0 | 0.00 | 0.46 | 0.30 | 99 | 1015.6 |
| 20260903111312 | 67 | 327 | 0.0 | 0.0 | 0.00 | 0.46 | 0.30 | 99 | 1015.6 |
| 20260903110311 | 67 | 79 | 0.0 | 0.0 | 0.00 | 0.46 | 0.30 | 99 | 1015.5 |
| 20260903105314 | 67 | 77 | 0.0 | 0.0 | 0.00 | 0.46 | 0.30 | 99 | 1015.6 |
| 20260903104255 | 67 | 58 | 0.0 | 0.0 | 0.00 | 0.46 | 0.30 | 99 | 1015.6 |
| 20260903102122 | 67 | 13 | 0.0 | 0.0 | 0.00 | 0.46 | 0.30 | 99 | 1015.3 |
| 20260903101106 | 67 | 100 | 0.0 | 1.0 | 0.00 | 0.46 | 0.30 | 99 | 1015.1 |
| 20260903100111 | 67 | 32 | 0.0 | 0.0 | 0.00 | 0.46 | 0.30 | 99 | 1014.9 |
| 20260903095109 | 67 | 89 | 0.0 | 0.0 | 0.00 | 0.46 | 0.30 | 99 | 1015.1 |
| 20260903092947 | 67 | 341 | 0.0 | 0.0 | 0.00 | 0.46 | 0.30 | 98 | 1014.9 |
| 20260903091959 | 67 | 68 | 0.0 | 0.0 | 0.00 | 0.46 | 0.30 | 98 | 1015.1 |
| 20260903091015 | 67 | 56 | 0.0 | 0.0 | 0.00 | 0.46 | 0.30 | 98 | 1015.3 |
| 20260903085949 | 67 | 56 | 0.0 | 0.0 | 0.00 | 0.46 | 0.30 | 98 | 1014.9 |
| 20260903085001 | 67 | 56 | 0.0 | 0.0 | 0.00 | 0.46 | 0.30 | 98 | 1014.9 |
| 20260903084010 | 67 | 342 | 0.0 | 0.0 | 0.00 | 0.46 | 0.30 | 98 | 1015.1 |
| 20260903083005 | 67 | 342 | 0.0 | 0.0 | 0.00 | 0.46 | 0.30 | 98 | 1015.4 |
| 20260903081952 | 66 | 342 | 0.0 | 0.0 | 0.00 | 0.46 | 0.30 | 98 | 1015.4 |
| 20260903080954 | 66 | 185 | 0.0 | 0.0 | 0.00 | 0.46 | 0.30 | 98 | 1015.5 |
| 20260903074847 | 66 | 197 | 0.0 | 0.0 | 0.00 | 0.46 | 0.30 | 98 | 1015.5 |
| 20260903073848 | 66 | 217 | 0.0 | 0.0 | 0.00 | 0.46 | 0.30 | 98 | 1015.9 |
| 20260903072817 | 66 | 217 | 0.0 | 0.0 | 0.00 | 0.45 | 0.28 | 98 | 1016.0 |
| 20260903070711 | 66 | 217 | 0.0 | 0.0 | 0.00 | 0.45 | 0.28 | 98 | 1016.1 |
| 20260903065656 | 66 | 217 | 0.0 | 0.0 | 0.00 | 0.45 | 0.28 | 98 | 1016.2 |